FW0705 Weather Reports


time (UTC)temp
F
wind
direction
speed
knots
gust
knots
rain 1hr
in
rain 24hr
in
rain mn
in
humidity
%
barometer
mb
20260507173401 56 148 0.9 5.2 0.00 0.00 0.00 60 1013.7
20260507171751 57 190 1.7 5.2 0.00 0.00 0.00 58 1013.7
20260507163356 58 157 2.6 7.8 0.00 0.00 0.00 58 1013.6
20260507160357 57 139 1.7 7.8 0.00 0.00 0.00 56 1013.7
20260507153352 57 78 1.7 6.1 0.00 0.00 0.00 59 1013.8
20260507150352 57 148 1.7 7.0 0.00 0.00 0.00 59 1014.0
20260507143351 56 200 1.7 7.8 0.00 0.00 0.00 60 1014.2
20260507133352 57 226 0.9 6.1 0.00 0.00 0.00 60 1014.5
20260507130351 56 109 1.7 8.7 0.00 0.00 0.00 61 1014.6
20260507123352 56 113 1.7 7.0 0.00 0.00 0.00 63 1014.7
20260507120351 55 186 2.6 7.8 0.00 0.00 0.00 65 1014.9
20260507113351 54 124 2.6 7.0 0.00 0.00 0.00 67 1015.0
20260507110404 53 192 1.7 7.0 0.00 0.00 0.00 68 1015.1
20260507103351 52 88 1.7 7.0 0.00 0.00 0.00 71 1015.3
20260507101726 50 132 1.7 5.2 0.00 0.00 0.00 78 1015.2
20260507093348 49 209 1.7 6.1 0.00 0.00 0.00 82 1015.2
20260507090347 47 106 1.7 7.8 0.00 0.00 0.00 84 1015.2
20260507083347 46 76 0.9 6.1 0.00 0.00 0.00 86 1015.2
20260507080346 45 127 1.7 6.1 0.00 0.00 0.00 87 1015.3
20260507073345 44 106 1.7 6.1 0.00 0.00 0.00 89 1015.3
20260507070345 44 98 0.9 5.2 0.00 0.00 0.00 90 1015.1
20260507063346 44 184 0.9 4.3 0.00 0.00 0.00 90 1015.0
20260507061720 43 123 0.9 6.1 0.00 0.00 0.00 91 1014.9
20260507053345 42 173 0.9 4.3 0.00 0.00 0.00 92 1014.9
20260507050345 40 96 0.0 0.0 0.00 0.00 0.00 92 1014.8
20260507043345 40 96 0.0 1.7 0.00 0.00 0.00 91 1014.8
20260507040345 41 96 0.0 3.5 0.00 0.00 0.00 90 1014.7
20260507033346 41 96 0.9 3.5 0.00 0.00 0.00 89 1014.8
20260507031731 41 128 0.9 2.6 0.00 0.00 0.00 88 1014.9
20260507023345 41 140 0.0 4.3 0.00 0.00 0.00 88 1014.9
20260507021724 42 196 0.9 4.3 0.00 0.00 0.00 87 1014.9
20260507013343 42 96 0.9 5.2 0.00 0.00 0.00 88 1014.9
20260507010342 41 76 0.0 3.5 0.00 0.00 0.00 89 1015.2
20260507003341 41 90 1.7 3.5 0.00 0.00 0.00 89 1015.2
20260507000343 41 161 0.9 4.3 0.00 0.00 0.00 88 1015.3
20260506233340 41 163 0.9 4.3 0.00 0.00 0.00 88 1015.4
20260506230337 41 190 1.7 6.1 0.00 0.00 0.00 87 1015.4
20260506223336 42 84 1.7 7.8 0.00 0.00 0.00 86 1015.4
20260506220336 42 120 1.7 7.0 0.00 0.00 0.00 85 1015.2
20260506213336 43 114 1.7 6.1 0.00 0.00 0.00 85 1015.1
20260506210338 43 83 0.9 5.2 0.00 0.00 0.00 83 1015.0
20260506203336 44 132 1.7 4.3 0.00 0.00 0.00 81 1014.8
20260506200338 45 126 0.9 4.3 0.00 0.00 0.00 79 1014.5
20260506193336 46 205 1.7 7.0 0.00 0.00 0.00 77 1014.2
20260506190337 47 139 2.6 7.0 0.00 0.00 0.00 75 1014.1
20260506183335 49 123 1.7 7.8 0.00 0.00 0.00 71 1014.0
20260506180337 49 120 1.7 6.1 0.00 0.00 0.00 71 1014.1